Regional Weather Roundup
Issued by NWS

Home | Current Version | Previous Version | Text Only | Print | Product List | Glossary On
Versions: 1 2 3 4 5 6 7 8 9 10 11 12 13 14 15 16 17 18 19 20 21 22 23 24 25 26 27 28 29 30 31 32 33 34 35 36 37 38 39 40 41 42 43 44 45 46 47 48 49 50
000
ASUS42 KKEY 231410
RWRKEY

FLORIDA REGIONAL WEATHER ROUNDUP FOR THE FLORIDA KEYS
NATIONAL WEATHER SERVICE KEY WEST FLORIDA
1000 AM EDT SAT JUL 23 2016

...SOUTH FLORIDA AND THE KEYS...

CITY           SKY/WX    TMP DP  RH WIND       PRES   REMARKS
FORT MYERS     SUNNY     82  73  74 SE5       30.03R
SW REGIONAL AP SUNNY     82  73  74 SE3       30.03S
NAPLES         SUNNY     81  72  74 E6        30.02S
MIAMI          PTSUNNY   85  75  72 VRB3      30.03S HX  93
WEST KENDALL   SUNNY     81  75  82 E5        30.03S
HOMESTEAD      MOSUNNY   85  75  70 E3        30.03R HX  94
MARATHON       SUNNY     86  76  71 VRB5      30.02R HX  96
BOCA CHICA NAS MOSUNNY   86  75  69 VRB7      30.02S HX  95
KEY WEST INTL  SUNNY     86  77  74 VRB5      30.02S HX  97

...INTERNATIONAL WEATHER...

CITY           SKY/WX    TMP DP  RH WIND       PRES   REMARKS
NASSAU BAHAMAS MOSUNNY   88  75  66 CALM      30.04R HX  97
CANCUN MEXICO  PTSUNNY   86  77  74 E8        29.98R HX  97
COZUMEL MEXICO MOSUNNY   82  77  83 SE9       29.98R HX  91

ADJACENT COASTAL WATERS...

STATION/POSITION TIME  SKY/WX   TEMP    WIND        PRES    WAVE
                                AIR SEA DIR/SP/G            HT/PER
                 (UTC)          (F)     (DEG/KT/KT) (MB)    (FT/S)
PULASKI SHOAL LI 1400            84     120/  7/  8 1016.8R
SAND KEY         1350            83     110/  6/  7 1017.1R
LONG KEY         1400            84 85  100/  5/  6 1017.3R
FOWEY ROCKS      1400            84 84   70/  3/  4 1017.7R

$$



USA.gov is the U.S. government's official web portal to all federal, state and local government web resources and services.